Miscellaneous Local Product
Issued by NWS Hastings, NE

Home | Current Version | Previous Version | Text Only | Print | Product List | Glossary On
Versions: 1 2 3 4 5 6 7 8 9 10 11 12 13 14 15 16 17 18 19 20 21 22 23 24 25 26 27 28 29 30 31 32 33 34 35 36 37 38 39 40 41 42 43 44 45 46 47 48 49 50
000
AXUS43 KGID 301102
MISGRI

GID CWA HOURLY WEATHER ROUNDUP
NATIONAL WEATHER SERVICE HASTINGS NE
600 AM CDT WED JUL 30 2014

NOTE: "FAIR" INDICATES FEW OR NO CLOUDS BELOW 12,000 FEET WITH NO
SIGNIFICANT WEATHER AND/OR OBSTRUCTIONS TO VISIBILITY.

...SOUTH CENTRAL NEBRASKA...

CITY           SKY/WX    TMP DP  RH WIND       PRES   REMARKS
GRAND ISLAND   PTCLDY    59  56  89 N5        30.17R
HASTINGS       MOCLDY    59  54  83 NE6       30.15S
KEARNEY        MOCLDY    61  55  82 N5        30.17S
ORD            CLEAR     54  53  97 N3        30.17R
YORK           MOCLDY    57  57 100 N6        30.16S
AURORA         MOCLDY    58  58 100 CALM      30.16S
LEXINGTON      CLOUDY    63  61  91 CALM      30.18R
HOLDREGE       CLOUDY    62  59  89 CALM      30.16S
HEBRON         CLOUDY    63  57  81 CALM      30.14S

...NEBRASKA PANHANDLE...

CITY           SKY/WX    TMP DP  RH WIND       PRES   REMARKS
CHADRON        CLOUDY    53  52  96 CALM      30.24R
ALLIANCE       MOCLDY    60  54  80 N7        30.25R
SCOTTSBLUFF    CLOUDY    63  58  83 CALM      30.26R
SIDNEY         CLOUDY    62  60  93 NE5       30.26R

...WESTERN AND NORTH CENTRAL NEBRASKA...

CITY           SKY/WX    TMP DP  RH WIND       PRES   REMARKS
VALENTINE      CLEAR     50  48  93 SW7       30.20R
AINSWORTH      CLEAR     51  49  90 W6        30.20R
ONEILL         CLEAR     53  51  90 S3        30.17S FOG
BROKEN BOW     PTCLDY    56  54  93 N3        30.18S
IMPERIAL       CLOUDY    63  60  90 E5        30.20S
NORTH PLATTE   CLOUDY    62  59  90 CALM      30.19S
MCCOOK         CLOUDY    63  62  97 CALM      30.16F

...EASTERN NEBRASKA...

CITY           SKY/WX    TMP DP  RH WIND       PRES   REMARKS
NORFOLK        PTCLDY    55  52  89 CALM      30.16R
SO SIOUX CITY  CLEAR     51  50  96 CALM      30.15R
TEKAMAH        CLEAR     52  49  89 CALM      30.14R
ALBION         PTCLDY    52  51  95 CALM      30.17S
OMAHA EPPLEY   PTCLDY    55  53  93 NW5       30.14R
OFFUTT AFB     CLEAR     52  52 100 CALM      30.13R
MILLARD        PTCLDY    57  56  95 CALM      30.14R FOG
LINCOLN        PTCLDY    56  52  86 N5        30.16R
NEBRASKA CITY  PTCLDY    60  55  85 N3        30.14R
BEATRICE       MOCLDY    59  57  94 N3        30.14S
FALLS CITY     MOCLDY    58  56  93 N3        30.12S

...NORTHERN KANSAS...

CITY           SKY/WX    TMP DP  RH WIND       PRES   REMARKS
GOODLAND       LGT RAIN  61  59  93 NE15G23   30.18R
HILL CITY      CLOUDY    67  56  67 E15G21    30.14R
NORTON         LGT RAIN  61  57  88 SE5       30.13F
PHILLIPSBURG   DRIZZLE   64  64 100 N7        30.14S
SMITH CENTER   CLOUDY    63  61  94 E5        30.14R
HAYS           CLOUDY    68  55  64 E17       30.11R
RUSSELL        CLOUDY    68  58  70 NE16      30.08F
CONCORDIA      CLOUDY    64  63  96 CALM      30.12R
SALINA         CLOUDY    70  58  65 NE14G21   30.10F
TOPEKA         CLOUDY    68  62  81 N3        30.10S



USA.gov is the U.S. government's official web portal to all federal, state and local government web resources and services.